Regional Weather Roundup
Issued by NWS

Home | Current Version | Previous Version | Graphics & Text | Print | Product List | Glossary Off
Versions: 1 2 3 4 5 6 7 8 9 10 11 12 13 14 15 16 17 18 19 20 21 22 23 24 25 26 27 28 29 30 31 32 33 34 35 36 37 38 39 40 41 42 43 44 45 46 47 48 49 50

244
ASUS43 KMKX 291211
RWRWI

WISCONSIN REGIONAL WEATHER ROUNDUP
NATIONAL WEATHER SERVICE MILWAUKEE/SULLIVAN WI
700 AM CDT WED MAR 29 2017

NOTE: "FAIR" INDICATES FEW OR NO CLOUDS BELOW 12,000 FEET WITH NO
SIGNIFICANT WEATHER AND/OR OBSTRUCTIONS TO VISIBILITY.

WIZ001-002-006>008-014>016-023>028-291300-
NORTHWEST WISCONSIN

CITY           SKY/WX    TMP DP  RH WIND       PRES   REMARKS
SUPERIOR ARPT  CLOUDY    34  32  92 NE10G16   30.32S WCI  26
6HR MIN TEMP:  33; 6HR MAX TEMP:  35;

ASHLAND        CLOUDY    28  27  96 N3        30.32R
6HR MIN TEMP:  28; 6HR MAX TEMP:  32;

HAYWARD        CLOUDY    31  27  85 N6        30.27R WCI  25
6HR MIN TEMP:  28; 6HR MAX TEMP:  33;

SIREN          CLOUDY    32  29  88 CALM      30.26S
6HR MIN TEMP:  31; 6HR MAX TEMP:  37;

CUMBERLAND     CLOUDY    34  28  80 E5        30.25R WCI  30
RICE LAKE      CLOUDY    32  30  93 CALM      30.26S
6HR MIN TEMP:  30; 6HR MAX TEMP:  33;

CHETEK         CLOUDY    31  28  91 CALM      30.26R
6HR MIN TEMP:  29; 6HR MAX TEMP:  32;

LADYSMITH      PTCLDY    37  30  77 E6        30.28R WCI  32
6HR MIN TEMP:  32; 6HR MAX TEMP:  40;

EAU CLAIRE     CLOUDY    36  30  79 NE6       30.24S WCI  31
6HR MIN TEMP:  32; 6HR MAX TEMP:  36;

MENOMONIE      CLOUDY    36  32  85 E3        30.24S
6HR MIN TEMP:  33; 6HR MAX TEMP:  38;

NEW RICHMOND   CLOUDY    37  30  77 E5        30.23S WCI  33
6HR MIN TEMP:  33; 6HR MAX TEMP:  39;

OSCEOLA        CLOUDY    36  28  75 CALM      30.26S
6HR MIN TEMP:  31; 6HR MAX TEMP:  37;

$$

WIZ003>005-009-010-017-018-291300-
NORTH CENTRAL WISCONSIN

CITY           SKY/WX    TMP DP  RH WIND       PRES   REMARKS
MANITOWISH WTR CLOUDY    30  29  99 E3        30.29R
6HR MIN TEMP:  24; 6HR MAX TEMP:  32;

ARBOR VITAE    CLOUDY    32  28  84 E3        30.28S
6HR MIN TEMP:  32; 6HR MAX TEMP:  38;

WOODRUFF       CLOUDY    32  28  84 E3        30.28S
6HR MIN TEMP:  32; 6HR MAX TEMP:  38;

RHINELANDER    CLOUDY    30  26  85 E5        30.30R WCI  25
6HR MIN TEMP:  26; 6HR MAX TEMP:  35;

EAGLE RIVER    CLEAR     25  25 100 CALM      30.31R
6HR MIN TEMP:  25; 6HR MAX TEMP:  29;

LAND O LAKES   CLEAR     24  24  98 CALM      30.33R
6HR MIN TEMP:  24; 6HR MAX TEMP:  28;

PHILLIPS       CLOUDY    30  28  91 CALM      30.27S
6HR MIN TEMP:  26; 6HR MAX TEMP:  32;

TOMAHAWK       CLOUDY    24  22  93 CALM      30.29S
6HR MIN TEMP:  23; 6HR MAX TEMP:  28;

MEDFORD        PTCLDY    32  28  83 E8        30.27R WCI  25
6HR MIN TEMP:  30; 6HR MAX TEMP:  37;

MERRILL        PTCLDY    27  27  99 CALM      30.30R
6HR MIN TEMP:  26; 6HR MAX TEMP:  32;

$$

WIZ029-030-035-036-043>047-291300-
CENTRAL WISCONSIN

CITY           SKY/WX    TMP DP  RH WIND       PRES   REMARKS
WAUSAU         PTCLDY    31  28  89 CALM      30.28R
6HR MIN TEMP:  30; 6HR MAX TEMP:  39;

MOSINEE        PTCLDY    36  28  75 E7        30.29R WCI  30
MARSHFIELD     PTCLDY    36  28  73 E8        30.26R WCI  30
6HR MIN TEMP:  34; 6HR MAX TEMP:  39;

STEVENS POINT  CLOUDY    34  29  80 NE9       30.28S WCI  27
6HR MIN TEMP:  27; 6HR MAX TEMP:  34;

WAUPACA        PTCLDY    35  32  90 N3        30.30R
6HR MIN TEMP:  32; 6HR MAX TEMP:  37;

WAUTOMA        MOCLDY    35  31  85 NE6       30.29R WCI  30
6HR MIN TEMP:  29; 6HR MAX TEMP:  35;

WISC RAPIDS    PTCLDY    36  30  79 E5        30.29R WCI  32
6HR MIN TEMP:  31; 6HR MAX TEMP:  36;

CAMP DOUGLAS   PTCLDY    30  28  93 CALM      30.26S
$$

WIZ011>013-019>022-031-037>040-048>050-291300-
NORTHEAST WISCONSIN

CITY           SKY/WX    TMP DP  RH WIND       PRES   REMARKS
ANTIGO         CLEAR     32  26  76 E7        30.30R WCI  26
6HR MIN TEMP:  30; 6HR MAX TEMP:  34;

SHAWANO        CLEAR     34  29  83 NE8       30.33R WCI  27
6HR MIN TEMP:  32; 6HR MAX TEMP:  35;

OCONTO         CLEAR     28  28  99 CALM      30.33R
6HR MIN TEMP:  26; 6HR MAX TEMP:  32;

STURGEON BAY   CLEAR     35  28  75 NE8       30.30R WCI  29
6HR MIN TEMP:  32; 6HR MAX TEMP:  36;

GREEN BAY      CLEAR     33  32  96 NE8       30.31R WCI  26
6HR MIN TEMP:  32; 6HR MAX TEMP:  35;

MANITOWOC      CLEAR     34  32  92 N6        30.31R WCI  29
6HR MIN TEMP:  31; 6HR MAX TEMP:  34;

APPLETON       PTCLDY    36  28  75 NE6       30.28R WCI  31
CLINTONVILLE   CLOUDY    32  30  93 NE7       30.31R WCI  26
OSHKOSH        PTCLDY    37  30  75 NE5       30.29R WCI  33
6HR MIN TEMP:  32; 6HR MAX TEMP:  38;

$$

WIZ032>034-041-042-053>061-291300-
SOUTHWEST WISCONSIN

CITY           SKY/WX    TMP DP  RH WIND       PRES   REMARKS
LA CROSSE      CLOUDY    41  32  70 E6        30.23S
6HR MIN TEMP:  40; 6HR MAX TEMP:  45;

SPARTA         CLOUDY    29  28  96 CALM      30.26F
6HR MIN TEMP:  27; 6HR MAX TEMP:  32;

VIROQUA        CLOUDY    38  35  89 CALM      30.21F
6HR MIN TEMP:  36; 6HR MAX TEMP:  42;

BOSCOBEL       CLOUDY    36  34  92 NE3       30.22F FOG
6HR MIN TEMP:  32; 6HR MAX TEMP:  40;

PRAIRIE DU CHI CLOUDY    39  35  87 E5        30.21F
6HR MIN TEMP:  36; 6HR MAX TEMP:  41;

PLATTEVILLE    MOCLDY    38  38 100 E8        30.20S WCI  32
6HR MIN TEMP:  37; 6HR MAX TEMP:  41;

$$

WIZ056-057-062-063-064-067-068-291300-
SOUTH CENTRAL WISCONSIN

CITY           SKY/WX    TMP DP  RH WIND       PRES   REMARKS
REEDSBURG      CLOUDY    33  33 100 CALM      30.26R
6HR MIN TEMP:  32; 6HR MAX TEMP:  40;

BARABOO/DELLS  CLOUDY    35  33  92 E6        30.26R WCI  30
6HR MIN TEMP:  32; 6HR MAX TEMP:  39;

LONE ROCK      CLOUDY    34  31  88 E5        30.24S FOG     WCI  30
6HR MIN TEMP:  32; 6HR MAX TEMP:  41;

MINERAL POINT  FOG       37  37 100 NE7       30.21S VSB 3/4 WCI  32
MADISON        CLOUDY    32  31  96 N5        30.25S FOG     WCI  27
6HR MIN TEMP:  30; 6HR MAX TEMP:  38;

MIDDLETON      CLOUDY    34  34 100 E7        30.25S VSB 1/2 WCI  28
6HR MIN TEMP:  32; 6HR MAX TEMP:  42;

WATERTOWN      PTCLDY    31  31 100 CALM      30.26S
6HR MIN TEMP:  30; 6HR MAX TEMP:  33;

MONROE         SNOW      32  32 100 NE6       30.20F VSB<1/4 WCI  26
JANESVILLE     MOCLDY    34  34 100 NE5       30.23S WCI  30
$$

WIZ051-052-058>065-066-070>072-291300-
SOUTHEAST WISCONSIN

CITY           SKY/WX    TMP DP  RH WIND       PRES   REMARKS
MILWAUKEE      FOG       33  31  92 N3        30.27R VSB 1/4
6HR MIN TEMP:  32; 6HR MAX TEMP:  35;

WAUKESHA       CLEAR     30  30 100 CALM      30.27S
MILWAUKEE/TIMM CLOUDY    32  30  93 CALM      30.28R FOG
RACINE         FOG       31  30  96 N6        30.28R VSB 1/4 WCI  25
6HR MIN TEMP:  30; 6HR MAX TEMP:  32;

KENOSHA        FOG       31  30  96 NE5       30.26S VSB 1/4 WCI  26
6HR MIN TEMP:  31; 6HR MAX TEMP:  33;

FOND DU LAC    PTCLDY    36  30  79 NE5       30.29R WCI  32
6HR MIN TEMP:  32; 6HR MAX TEMP:  36;

SHEBOYGAN      CLOUDY    33  32  96 NE5       30.29R WCI  29
6HR MIN TEMP:  30; 6HR MAX TEMP:  34;

WEST BEND      PTCLDY    30  30 100 CALM      30.28R
JUNEAU         CLOUDY    33  31  94 NE3       30.27S
6HR MIN TEMP:  30; 6HR MAX TEMP:  34;

$$

LSZ147-162-291300-
LAKE SUPERIOR

STATION/POSITION TIME  TEMP    WIND        PRES    WAVE
                       AIR SEA DIR/SP/G            HT/PER
                 (UTC) (F)     (DEG/KT/KT) (MB)    (FT/S)
DEVILS ISLAND    1200   35      70/ 17/ 19 1028.1R
PORT WING        1140   33      60/  4/  7 1026.8R
SAXON HARBOR     1140   26     180/  3/  4 1026.4R
$$

LMZ867-665-643>646-291300-
LAKE MICHIGAN

STATION/POSITION TIME  TEMP    WIND        PRES    WAVE
                       AIR SEA DIR/SP/G            HT/PER
                 (UTC) (F)     (DEG/KT/KT) (MB)    (FT/S)
CHAMBERS ISLAND  1140   32      10/  9/ 11 1027.1R
NORTHPORT PIER   1140   32     360/  3/  4 1027.1R
SISTER BAY



USA.gov is the U.S. government's official web portal to all federal, state and local government web resources and services.